Weather History for KEFT - May, 2013

Change the Weather History Date:

Sunday, May 12, 2013

  Actual Average Record
Temperature  
Mean Temperature 44 °F -  
Max Temperature 54 °F 0 °F 82 °F (2011)
Min Temperature 35 °F - 33 °F (2001)
Degree Days  
Heating Degree Days 20    
Moisture  
Dew Point 22 °F    
Average Humidity 43    
Maximum Humidity 66    
Minimum Humidity 24    
Precipitation  
Precipitation 0.00 in - - ()
Sea Level Pressure  
Sea Level Pressure 30.09 in    
Wind  
Wind Speed 11 mph (WNW)    
Max Wind Speed 20 mph    
Max Gust Speed 25 mph    
Visibility 10 miles    
Events      
Averages and records for this station are not official NWS values.
T = Trace of Precipitation, MM = Missing Value Source: NWS Daily Summary

Daily Weather History Graph

Daily Weather History Graph

Search for Another Location

Airport or City:

Trip Planner

Search our weather history database for the weather conditions in past years. The results will help you decide how hot, cold, wet, or windy it might be!

Date:

Astronomy

May. 12, 2013 Rise Set
Actual Time 5:39 AM CDT 8:10 PM CDT
Civil Twilight 5:07 AM CDT 8:43 PM CDT
Nautical Twilight 4:27 AM CDT 9:23 PM CDT
Astronomical Twilight 3:42 AM CDT 10:08 PM CDT
Moon 7:33 AM CDT (5/12) 10:38 PM CDT (5/12)
Length of Visible Light 15h 36m
Length of Day
14h 31m
Waxing Crescent, 7% of the Moon is Illuminated
May 12
Waxing Crescent
May 17
First Quarter
May 24
Full
May 31
Last Quarter
Jun 8
New

Hourly Weather History & Observations

Time (CDT) Temp. Windchill Dew Point Humidity Pressure Visibility Wind Dir Wind Speed Gust Speed Precip Events Conditions
12:15 AM 40.5 °F 33.2 °F 23.4 °F 51% 30.06 in 10.0 mi West 12.7 mph - N/A   Clear
12:35 AM 40.3 °F 33.0 °F 23.5 °F 51% 30.07 in 10.0 mi West 12.7 mph - N/A   Clear
12:55 AM 39.9 °F 32.9 °F 23.7 °F 52% 30.07 in 10.0 mi West 11.5 mph - N/A   Clear
1:15 AM 39.6 °F 32.5 °F 23.7 °F 53% 30.07 in 10.0 mi WNW 11.5 mph - N/A   Clear
1:35 AM 39.0 °F 32.3 °F 23.9 °F 55% 30.07 in 10.0 mi WNW 10.4 mph - N/A   Clear
1:55 AM 38.3 °F 31.9 °F 24.3 °F 57% 30.07 in 10.0 mi WNW 9.2 mph - N/A   Clear
2:15 AM 37.4 °F 30.8 °F 24.6 °F 60% 30.07 in 10.0 mi WNW 9.2 mph - N/A   Clear
2:35 AM 37.0 °F 31.6 °F 24.6 °F 61% 30.07 in 10.0 mi NW 6.9 mph - N/A   Clear
2:55 AM 36.9 °F 30.7 °F 24.8 °F 62% 30.07 in 10.0 mi WNW 8.1 mph - N/A   Clear
3:15 AM 37.0 °F 29.8 °F 25.0 °F 62% 30.07 in 10.0 mi West 10.4 mph - N/A   Clear
3:35 AM 37.2 °F 30.0 °F 24.6 °F 60% 30.07 in 10.0 mi WNW 10.4 mph - N/A   Clear
3:55 AM 36.5 °F 29.2 °F 24.8 °F 63% 30.08 in 10.0 mi NW 10.4 mph - N/A   Clear
4:35 AM 35.6 °F 29.9 °F 24.8 °F 65% 30.08 in 10.0 mi WNW 6.9 mph - N/A   Clear
4:55 AM 35.2 °F 28.1 °F 24.8 °F 66% 30.08 in 10.0 mi West 9.2 mph - N/A   Clear
5:15 AM 35.1 °F 28.6 °F 24.8 °F 66% 30.08 in 10.0 mi WNW 8.1 mph - N/A   Clear
5:35 AM 35.1 °F 28.6 °F 24.8 °F 66% 30.09 in 10.0 mi WNW 8.1 mph - N/A   Clear
5:55 AM 35.1 °F 28.6 °F 24.8 °F 66% 30.10 in 10.0 mi West 8.1 mph - N/A   Clear
6:15 AM 35.6 °F 29.2 °F 24.8 °F 65% 30.10 in 10.0 mi WNW 8.1 mph - N/A   Clear
6:35 AM 36.5 °F 30.3 °F 25.2 °F 64% 30.10 in 10.0 mi NW 8.1 mph - N/A   Clear
6:55 AM 37.4 °F 31.4 °F 25.5 °F 62% 30.10 in 10.0 mi NW 8.1 mph - N/A   Clear
7:15 AM 38.3 °F 31.4 °F 25.9 °F 61% 30.10 in 10.0 mi WNW 10.4 mph - N/A   Clear
7:35 AM 39.2 °F 32.5 °F 25.9 °F 59% 30.10 in 10.0 mi NW 10.4 mph - N/A   Clear
7:55 AM 40.5 °F 33.6 °F 25.2 °F 54% 30.10 in 10.0 mi NNW 11.5 mph 21.9 mph N/A   Clear
8:15 AM 41.4 °F 35.2 °F 25.2 °F 53% 30.11 in 10.0 mi NNW 10.4 mph 24.2 mph N/A   Clear
8:35 AM 41.9 °F 34.3 °F 24.4 °F 50% 30.11 in 10.0 mi NNW 15.0 mph 23.0 mph N/A   Scattered Clouds
8:55 AM 42.6 °F 35.9 °F 24.3 °F 48% 30.12 in 10.0 mi NNW 12.7 mph 24.2 mph N/A   Scattered Clouds
9:15 AM 43.7 °F 39.1 °F 25.0 °F 48% 30.12 in 10.0 mi NNW 8.1 mph 18.4 mph N/A   Clear
9:35 AM 43.5 °F 37.1 °F 23.5 °F 45% 30.12 in 10.0 mi WNW 12.7 mph 20.7 mph N/A   Scattered Clouds
9:55 AM 44.8 °F 40.4 °F 24.3 °F 45% 30.12 in 10.0 mi NNW 8.1 mph 20.7 mph N/A   Scattered Clouds
10:15 AM 44.4 °F 38.6 °F 23.4 °F 43% 30.13 in 10.0 mi WNW 11.5 mph 19.6 mph N/A   Clear
10:35 AM 45.0 °F 38.9 °F 24.3 °F 44% 30.13 in 10.0 mi NW 12.7 mph 19.6 mph N/A   Scattered Clouds
10:55 AM 46.4 °F 41.9 °F 24.8 °F 43% 30.13 in 10.0 mi West 9.2 mph 18.4 mph N/A   Scattered Clouds
11:15 AM 47.5 °F - 23.2 °F 38% 30.13 in 10.0 mi WNW 13.8 mph 20.7 mph N/A   Scattered Clouds
11:35 AM 47.7 °F - 22.5 °F 37% 30.12 in 10.0 mi NW 16.1 mph 24.2 mph N/A   Scattered Clouds
11:55 AM 47.5 °F - 23.7 °F 39% 30.12 in 10.0 mi NNW 6.9 mph 21.9 mph N/A   Scattered Clouds
12:15 PM 48.7 °F - 20.7 °F 33% 30.12 in 10.0 mi WNW 16.1 mph 23.0 mph N/A   Scattered Clouds
12:35 PM 49.1 °F - 21.6 °F 34% 30.11 in 10.0 mi WNW 13.8 mph 23.0 mph N/A   Clear
12:55 PM 50.5 °F - 21.4 °F 32% 30.11 in 10.0 mi WNW 15.0 mph 21.9 mph N/A   Clear
1:15 PM 50.9 °F - 20.8 °F 31% 30.11 in 10.0 mi WNW 11.5 mph 21.9 mph N/A   Clear
1:35 PM 51.3 °F - 19.4 °F 29% 30.11 in 10.0 mi West 12.7 mph 20.7 mph N/A   Clear
1:55 PM 51.8 °F - 18.3 °F 27% 30.10 in 10.0 mi NW 10.4 mph - N/A   Clear
2:15 PM 52.7 °F - 19.8 °F 27% 30.10 in 10.0 mi WNW 16.1 mph 21.9 mph N/A   Clear
2:35 PM 52.7 °F - 19.2 °F 27% 30.10 in 10.0 mi WNW 19.6 mph 24.2 mph N/A   Clear
2:55 PM 52.7 °F - 17.2 °F 25% 30.09 in 10.0 mi WNW 9.2 mph 20.7 mph N/A   Clear
3:15 PM 53.1 °F - 18.5 °F 26% 30.09 in 10.0 mi NW 10.4 mph - N/A   Clear
3:35 PM 53.8 °F - 18.7 °F 25% 30.09 in 10.0 mi WNW 13.8 mph 21.9 mph N/A   Clear
3:55 PM 54.0 °F - 17.6 °F 24% 30.08 in 10.0 mi West 16.1 mph 25.3 mph N/A   Clear
4:15 PM 54.7 °F - 18.7 °F 24% 30.08 in 10.0 mi WNW 16.1 mph 24.2 mph N/A   Scattered Clouds
4:35 PM 53.8 °F - 19.9 °F 27% 30.07 in 10.0 mi WNW 13.8 mph 20.7 mph N/A   Scattered Clouds
4:55 PM 54.5 °F - 19.9 °F 26% 30.07 in 10.0 mi WNW 17.3 mph 23.0 mph N/A   Scattered Clouds
5:15 PM 54.3 °F - 20.1 °F 26% 30.07 in 10.0 mi NW 8.1 mph 18.4 mph N/A   Scattered Clouds
5:35 PM 54.1 °F - 19.8 °F 26% 30.07 in 10.0 mi West 15.0 mph - N/A   Clear
5:55 PM 54.3 °F - 21.4 °F 28% 30.07 in 10.0 mi WNW 11.5 mph - N/A   Scattered Clouds
6:15 PM 53.8 °F - 19.8 °F 26% 30.07 in 10.0 mi WNW 13.8 mph 18.4 mph N/A   Clear
6:35 PM 53.6 °F - 20.7 °F 28% 30.07 in 10.0 mi WNW 12.7 mph 19.6 mph N/A   Clear
6:55 PM 53.2 °F - 20.1 °F 27% 30.07 in 10.0 mi West 12.7 mph 18.4 mph N/A   Clear
7:15 PM 52.2 °F - 19.9 °F 28% 30.07 in 10.0 mi WNW 10.4 mph 18.4 mph N/A   Clear
7:35 PM 51.6 °F - 21.0 °F 30% 30.07 in 10.0 mi WNW 10.4 mph - N/A   Scattered Clouds
7:55 PM 50.5 °F - 21.2 °F 32% 30.07 in 10.0 mi West 9.2 mph - N/A   Clear
8:15 PM 49.6 °F - 21.2 °F 33% 30.07 in 10.0 mi West 9.2 mph - N/A   Clear
8:35 PM 48.9 °F - 21.9 °F 35% 30.08 in 10.0 mi WNW 9.2 mph - N/A   Clear
8:55 PM 48.2 °F - 21.7 °F 35% 30.08 in 10.0 mi WNW 8.1 mph - N/A   Clear
9:15 PM 48.2 °F - 21.4 °F 35% 30.09 in 10.0 mi WNW 9.2 mph - N/A   Clear
9:35 PM 47.8 °F - 21.9 °F 36% 30.10 in 10.0 mi WNW 6.9 mph - N/A   Clear
9:55 PM 47.3 °F - 22.1 °F 37% 30.10 in 10.0 mi WNW 6.9 mph - N/A   Clear
10:15 PM 47.5 °F - 22.1 °F 37% 30.10 in 10.0 mi WNW 8.1 mph - N/A   Clear
10:35 PM 46.6 °F - 22.1 °F 38% 30.10 in 10.0 mi WNW 8.1 mph - N/A   Clear
10:55 PM 46.9 °F - 21.9 °F 37% 30.10 in 10.0 mi WNW 8.1 mph - N/A   Clear
11:15 PM 45.9 °F 41.7 °F 22.1 °F 39% 30.10 in 10.0 mi WNW 8.1 mph - N/A   Clear
11:35 PM 45.3 °F 41.1 °F 22.1 °F 40% 30.10 in 10.0 mi WNW 8.1 mph - N/A   Clear
11:55 PM 45.5 °F 41.3 °F 21.7 °F 39% 30.10 in 10.0 mi WNW 8.1 mph - N/A   Clear